Location: Zagreb
(45.8000°N, 16.0000°E)
Time: 03:25:23
(UTC+01:00)

Courier 1B - Pass Details

Date: 09 October 2020
Orbit: 963 x 1209 km, 28.3° (Epoch: 25 October)

Event Time Altitude Azimuth Distance (km) Brightness Sun altitude
Rises 18:44:28 0° 211° (SSW) 3,918 11.2 -5.0°
Reaches altitude 10° 18:49:02 10° 185° (S) 3,018 10.2 -5.8°
Maximum altitude 18:52:11 13° 160° (SSE) 2,825 9.8 -6.3°
Drops below altitude 10° 18:55:23 10° 135° (SE) 3,086 9.7 -6.9°
Enters shadow 18:58:31 - 117° (ESE) 3,690 10.0 -7.4°
